Погода в Амерсфорте

Нидерланды     52°09′13″N   5°23′03″E
темп.,
°C
ветер,
м/с
пор.,
м/с
влажн.,
%
обл.,
%
осадки,
мм/ч
давл.,
гПа
погр.,
м
27 января, ср
ср2701:00+2ююз51279100 0.1 1015579
04:00+1ююз81396100 0.2 1012613
07:00+2ююз61197100 0.4 1010469
10:00+2ююз61091100 0.4 1009451
13:00+5зюз51095100 0.6 1010395
16:00+6з4992100 0.0 1010459
19:00+5зюз3796100 0.0 1010283
22:00+6зюз4796100 0.0 1010285
28 января, чт
чт2801:00+6зюз3797100 0.0 1010249
04:00+4юз2298100 0.0 100844
07:00+5юв2298100 0.1 100558
10:00+5в4897100 3.0 1002310
13:00+5вюв3697100 5.9 1001309
16:00+5вюв3696100 1.4 1000284
19:00+5вюв4796100 3.2 1001280
22:00+5ююв2398100 0.3 1001114
29 января, пт
пт2901:00+7юз3597100 0.3 1000146
04:00+6ю2397100 0.4 99673
07:00+8зюз41198100 7.6 993469
10:00+8з71488100 0.1 994811
13:00+8з71285100 0.1 996902
16:00+7сз4890100 0.1 997515
19:00+3с4690100 0.1 1000366
22:00+1св5784100 0.0 1003568
30 января, сб
сб3001:000всв468198 0.0 1004634
04:00−2всв488879 0.0 1004470
07:00−2в6127978 0.0 1003568
10:000в71366100 0.0 1002681
13:00+2в71251100 0.0 1001806
16:00+1всв71150100 0.0 1001763
19:000всв71354100 0.0 1002648
22:00−1всв61252100 0.0 1004531
31 января, вс
вс3101:00−1всв51153100 0.0 1005439
04:00−1всв495699 0.0 1005311
07:00−2всв495676 0.0 1006271
10:00−1в484490 0.0 1007288
13:00+3в473193 0.0 1006413
16:00+2в483462 0.0 1004424
19:00−1в4104166 0.0 1003279
22:000в5947100 0.0 1002298